DW8835 La Escala ES current weather conditions

sailwx.info

Wind from 360 at 2 knots gusting 4

Air temperature 15.6° C
Dewpoint 14.1° C

Last reported at 2014-Nov-23 07:49 UTC.
Time now 2014-Nov-23 08:42 UTC

Location: N 42°07' E 003°08'.
View on Google Maps.

See reports from other nearby stations

  
Tides and Currents Weather Stations Pressure Air Temp Water Temp Dewpoint Dewpoint Depression Visibility Wind Speed Wind Dir Waves Ship Positions
date/time (UTC)wind fromknots sea level pressurealtimeterstation pressurevisibilityair tempwater tempwave heightnotes
2014-Nov-23 07:49 360 2 gusting 4 15.6
2014-Nov-23 07:29 009 15.6
2014-Nov-23 07:19 009 15.6
2014-Nov-23 06:59 005 15.6
2014-Nov-23 06:49 005 0 gusting 3 15.6
2014-Nov-23 06:29 005 0 gusting 1 15.6
2014-Nov-23 06:19 005 15.6
2014-Nov-23 05:59 005 0 gusting 1 15.6
2014-Nov-23 05:49 005 16.1
2014-Nov-23 05:29 005 16.1
2014-Nov-23 05:19 005 16.1
2014-Nov-23 05:00 005 0 gusting 1 16.1
2014-Nov-23 04:49 005 16.1
2014-Nov-23 04:29 333 1 gusting 4 16.1
2014-Nov-23 04:19 360 1 gusting 3 16.1
2014-Nov-23 03:59 331 2 gusting 6 16.1
2014-Nov-23 03:49 011 2 gusting 4 16.1
2014-Nov-23 03:29 348 1 gusting 4 16.7
2014-Nov-23 03:19 350 1 gusting 3 16.7
2014-Nov-23 02:59 012 0 gusting 3 16.7
2014-Nov-23 02:49 013 1 gusting 2 16.7
2014-Nov-23 02:29 013 1 gusting 4 16.7
2014-Nov-23 02:19 013 2 gusting 3 16.7
2014-Nov-23 01:59 013 0 gusting 3 17.2
2014-Nov-23 01:49 014 0 gusting 2 17.2
2014-Nov-23 01:29 015 1 gusting 4 17.2
2014-Nov-23 01:19 360 0 gusting 3 17.2
2014-Nov-23 00:59 360 0 gusting 3 17.8
2014-Nov-23 00:49 360 1 gusting 3 17.8
2014-Nov-23 00:29 360 17.8
2014-Nov-23 00:19 005 2 gusting 4 17.8
2014-Nov-22 23:59 129 17.8
2014-Nov-22 23:49 129 17.8
2014-Nov-22 23:29 130 17.8
2014-Nov-22 23:19 132 17.8
2014-Nov-22 22:59 132 18.3
2014-Nov-22 22:49 132 18.3
2014-Nov-22 22:29 132 18.3
2014-Nov-22 22:19 135 0 gusting 3 18.3
2014-Nov-22 21:59 132 18.3
2014-Nov-22 21:49 134 0 gusting 2 18.3
2014-Nov-22 21:29 103 0 gusting 2 18.3
2014-Nov-22 21:19 083 0 gusting 2 18.3
2014-Nov-22 20:59 073 0 gusting 2 18.3
2014-Nov-22 20:49 117 18.3
2014-Nov-22 20:29 124 1 gusting 3 18.3
2014-Nov-22 20:19 099 0 gusting 5 18.3
2014-Nov-22 19:59 150 0 gusting 3 18.3
2014-Nov-22 19:49 150 1 gusting 3 18.3
2014-Nov-22 19:39 103 1 gusting 4 18.3
2014-Nov-22 19:29 114 18.3
2014-Nov-22 19:19 115 18.3
2014-Nov-22 19:09 115 18.3
2014-Nov-22 18:59 115 18.3
2014-Nov-22 18:49 115 0 gusting 4 18.3
2014-Nov-22 18:29 096 0 gusting 1 18.3
2014-Nov-22 18:19 095 18.3
2014-Nov-22 17:59 059 0 gusting 3 18.9
2014-Nov-22 17:39 148 0 gusting 2 18.9
2014-Nov-22 17:29 130 18.9
2014-Nov-22 17:18 131 0 gusting 1 18.9
2014-Nov-22 16:58 142 0 gusting 3 18.9
2014-Nov-22 16:49 113 0 gusting 2 18.9
2014-Nov-22 16:29 134 2 gusting 6 18.9
2014-Nov-22 16:19 094 1 gusting 5 18.9
2014-Nov-22 15:58 135 2 gusting 3 18.9
2014-Nov-22 15:49 111 1 gusting 3 18.9
2014-Nov-22 15:28 119 4 gusting 6 18.9
2014-Nov-22 15:19 108 0 gusting 3 18.9
2014-Nov-22 14:59 090 0 gusting 3 18.9
2014-Nov-22 14:49 094 0 gusting 4 18.9
2014-Nov-22 14:29 096 0 gusting 2 18.9
2014-Nov-22 14:19 092 0 gusting 2 18.9
2014-Nov-22 13:59 080 0 gusting 2 18.9
2014-Nov-22 13:49 078 18.9
2014-Nov-22 13:29 079 18.3
2014-Nov-22 13:19 078 2 gusting 3 18.9
2014-Nov-22 12:59 121 0 gusting 3 19.4
2014-Nov-22 12:49 005 19.4
2014-Nov-22 12:39 005 18.9
2014-Nov-22 12:29 005 18.3
2014-Nov-22 12:19 005 18.3
2014-Nov-22 12:09 005 0 gusting 1 18.3
2014-Nov-22 11:59 005 18.3
2014-Nov-22 11:49 005 18.3
2014-Nov-22 11:29 005 0 gusting 2 18.3
2014-Nov-22 11:19 005 18.3
2014-Nov-22 10:59 005 17.8
2014-Nov-22 10:48 005 17.8
2014-Nov-22 10:28 005 17.2
2014-Nov-22 10:19 005 17.2
2014-Nov-22 09:59 005 0 gusting 1 16.7
2014-Nov-22 09:48 005 0 gusting 2 16.7
2014-Nov-22 09:28 005 16.1
2014-Nov-22 09:19 005 16.1
2014-Nov-22 08:58 005 1 gusting 2 15.0
2014-Nov-22 08:48 005 0 gusting 1 14.4
2014-Nov-22 08:29 005 1 gusting 4 14.4
2014-Nov-22 08:19 005 1 gusting 2 14.4
2014-Nov-22 07:59 005 1 gusting 4 14.4
2014-Nov-22 07:49 005 2 gusting 3 14.4
2014-Nov-22 07:29 005 14.4
2014-Nov-22 07:19 005 14.4
2014-Nov-22 06:58 005 13.9
2014-Nov-22 06:49 005 13.9
2014-Nov-22 06:28 005 13.9
2014-Nov-22 06:19 005 0 gusting 4 13.9
2014-Nov-22 05:59 355 1 gusting 4 13.9
2014-Nov-22 05:48 355 1 gusting 4 13.9
2014-Nov-22 05:29 355 13.9
2014-Nov-22 05:19 355 2 gusting 5 13.9
2014-Nov-22 04:58 344 1 gusting 3 13.9
2014-Nov-22 04:49 277 0 gusting 2 13.9
2014-Nov-22 04:29 173 14.4
2014-Nov-22 04:18 173 14.4
2014-Nov-22 03:58 173 14.4
2014-Nov-22 03:49 173 14.4
2014-Nov-22 03:28 173 14.4
2014-Nov-22 03:18 172 14.4
2014-Nov-22 02:59 173 14.4
2014-Nov-22 02:48 232 14.4
2014-Nov-22 02:28 232 14.4
2014-Nov-22 02:18 232 14.4
2014-Nov-22 01:58 232 14.4
2014-Nov-22 01:48 232 14.4
2014-Nov-22 01:28 232 15.0
2014-Nov-22 01:18 232 15.0
2014-Nov-22 00:59 231 15.0
2014-Nov-22 00:48 232 15.0
2014-Nov-22 00:38 188 15.0
2014-Nov-22 00:28 188 15.0
2014-Nov-22 00:18 188 15.0
2014-Nov-22 00:09 188 15.0
2014-Nov-21 23:58 188 15.0
2014-Nov-21 23:48 188 0 gusting 3 15.0
2014-Nov-21 23:29 189 15.0
2014-Nov-21 23:18 189 15.0
2014-Nov-21 22:59 189 15.0
2014-Nov-21 22:48 189 15.0
2014-Nov-21 22:38 189 15.0
2014-Nov-21 22:29 185 15.0
2014-Nov-21 22:19 185 15.0
2014-Nov-21 22:08 185 15.0
2014-Nov-21 21:59 185 15.0
2014-Nov-21 21:48 185 15.0
2014-Nov-21 21:28 185 15.6
2014-Nov-21 21:18 185 15.6
2014-Nov-21 20:58 185 16.1
2014-Nov-21 20:48 185 16.7
2014-Nov-21 20:39 185 16.7
2014-Nov-21 20:28 187 0 gusting 3 16.7
2014-Nov-21 20:18 176 1 gusting 4 17.2
2014-Nov-21 20:08 175 1 gusting 4 17.2
2014-Nov-21 19:58 173 2 gusting 4 17.2
2014-Nov-21 19:49 139 0 gusting 5 17.2
2014-Nov-21 19:39 139 0 gusting 3 17.2
2014-Nov-21 19:29 159 0 gusting 2 17.2
2014-Nov-21 19:19 159 17.2
2014-Nov-21 19:08 159 17.2
2014-Nov-21 18:58 160 1 gusting 6 17.2
2014-Nov-21 18:49 162 3 gusting 6 17.2
2014-Nov-21 18:28 161 2 gusting 6 17.2
2014-Nov-21 18:19 180 2 gusting 6 17.2
2014-Nov-21 17:58 169 2 gusting 5 17.2
2014-Nov-21 17:48 160 3 gusting 6 17.2
2014-Nov-21 17:28 142 3 gusting 5 17.2
2014-Nov-21 17:18 140 3 gusting 4 17.8
2014-Nov-21 16:58 144 2 gusting 5 17.8
2014-Nov-21 16:49 150 4 gusting 6 17.8
2014-Nov-21 16:28 167 4 gusting 6 18.3
2014-Nov-21 16:08 173 4 gusting 6 18.9
2014-Nov-21 15:58 150 3 gusting 7 18.9
2014-Nov-21 15:49 142 4 gusting 7 18.9
2014-Nov-21 15:29 175 5 gusting 10 19.4
2014-Nov-21 15:18 196 6 gusting 12 19.4
2014-Nov-21 14:58 192 8 gusting 16 19.4
2014-Nov-21 14:48 195 7 gusting 14 20.0
2014-Nov-21 14:28 165 7 gusting 13 20.0
2014-Nov-21 14:18 167 6 gusting 13 20.0
2014-Nov-21 13:58 188 8 gusting 16 20.0
2014-Nov-21 13:48 157 7 gusting 11 20.0
2014-Nov-21 13:28 196 7 gusting 12 20.0
2014-Nov-21 13:18 192 6 gusting 11 20.0
2014-Nov-21 12:59 034 17.8
2014-Nov-21 12:48 020 3 gusting 6 17.8
2014-Nov-21 12:28 071 2 gusting 6 17.2
2014-Nov-21 12:18 057 2 gusting 5 16.7
2014-Nov-21 11:58 065 2 gusting 4 16.7
2014-Nov-21 11:48 051 0 gusting 3 16.7
2014-Nov-21 11:28 348 17.2
2014-Nov-21 11:19 348 16.7
2014-Nov-21 10:58 348 1 gusting 2 16.7
2014-Nov-21 10:48 348 0 gusting 2 16.7
2014-Nov-21 10:28 348 16.1
2014-Nov-21 10:18 348 16.1
2014-Nov-21 09:58 348 15.0
2014-Nov-21 09:48 348 15.0
2014-Nov-21 09:28 348 14.4
2014-Nov-21 09:18 348 13.9
2014-Nov-21 08:58 348 0 gusting 3 13.3
2014-Nov-21 08:48 348 1 gusting 3 13.3
2014-Nov-21 08:28 346 1 gusting 2 13.3
2014-Nov-21 08:18 346 12.8